#timestamp,LO_Frequency,Hit,StdDev 
1581206415.7,286047000.9,N
1581206435.6,286046999.1,N
1581206455.4,286046998.1,N
1581206475.2,286047001.0,N
1581206495.1,286047000.7,N
1581206496.0,286047000.7,N
1581206515.8,286046999.7,N
1581206535.7,286047000.9,N
1581206555.5,286047000.4,N
1581206575.3,286046998.2,N
1581206595.2,286047002.6,N
1581206615.0,286046999.8,N
1581206615.9,286046999.8,N
1581206635.7,286047001.2,N
1581206655.6,286046998.4,N
1581206675.4,286046999.5,N
1581206695.3,286046999.9,N
1581206715.1,286047004.3,N
1581206735.8,286047001.5,N
1581206755.7,286047002.7,N
1581206775.5,286047002.5,N
1581206795.4,286047002.1,N
1581206815.2,286046999.8,N
1581206835.0,286047002.2,N
1581206835.9,286047002.2,N
1581206855.8,286047002.2,N
1581206875.6,286047002.8,N
1581206895.4,286047000.7,N
1581206915.3,286046998.1,N
1581206935.1,286047001.0,N
1581206955.9,286047000.3,N
1581206975.7,286046999.7,N
1581206995.5,286047002.6,N
1581207015.4,286047000.6,N
1581207035.2,286046999.3,N
1581207055.0,286046998.5,N
1581207055.9,286046998.5,N
1581207075.8,286046998.5,N
1581207095.6,286046998.8,N
1581207115.5,286047000.2,N
1581207135.3,286047001.6,N
1581207155.1,286047004.0,N
1581207175.9,286047011.9,Y
1581207195.7,286047000.6,P
1581207215.6,286047002.4,P
1581207235.4,286047001.9,N
1581207255.2,286047003.6,Y
1581207275.1,286047003.1,P
1581207276.0,286047003.1,P
1581207295.8,286047005.5,P
1581207315.6,286047007.1,Y
1581207335.5,286047001.0,P
1581207355.3,286046999.0,N
1581207375.2,286046996.8,N
1581207395.9,286046996.9,N
1581207415.7,286046998.3,N
1581207435.6,286047000.2,N
1581207455.4,286047002.0,N
1581207475.2,286047001.3,N
1581207495.1,286046999.7,N
1581207496.0,286046999.7,N
1581207515.8,286046997.2,N
1581207535.7,286046993.3,Y
1581207555.5,286046994.2,P
1581207575.3,286046994.1,N
1581207595.2,286046996.4,N
1581207615.0,286046997.6,N
1581207615.9,286046997.6,N
1581207635.8,286046996.8,N
1581207655.6,286046993.4,Y
1581207675.4,286046997.9,P
1581207695.3,286046999.1,N
1581207715.1,286046996.7,P
1581207735.9,286046995.4,Y
1581207755.7,286047000.6,P
1581207775.5,286047000.1,N
1581207795.4,286047004.0,P
1581207815.2,286047005.7,N
1581207835.1,286047005.6,N
1581207836.0,286047005.6,N
1581207855.8,286047003.4,N
1581207875.6,286047003.5,N
1581207895.5,286046999.8,N
1581207915.3,286047002.1,N
1581207935.1,286047002.0,N
1581207955.9,286047004.3,N
1581207975.7,286047007.6,Y
1581207995.6,286047001.4,P
1581208015.4,286047002.1,P
1581208035.2,286046998.2,P
1581208055.1,286047000.8,N
1581208056.0,286047000.8,N
1581208075.8,286046999.8,N
1581208095.6,286047002.4,N
1581208115.5,286047001.7,N
1581208135.3,286047003.9,N
1581208155.2,286047000.8,N
1581208175.9,286047001.0,N
1581208195.7,286047002.6,N
1581208215.6,286046999.7,N
1581208235.4,286046999.8,N
1581208255.2,286047002.2,N
1581208275.1,286047002.7,N
1581208276.0,286047002.7,N
1581208295.8,286047000.5,N
1581208315.7,286047002.8,N
1581208335.5,286047002.1,N
1581208355.3,286047002.8,N
1581208375.2,286047002.7,N
1581208395.0,286047000.5,N
1581208395.9,286047000.5,N
1581208415.8,286047011.9,Y
1581208435.6,286047001.1,P
1581208455.4,286047000.5,N
1581208475.3,286047000.7,N
1581208495.1,286047000.9,N
1581208515.8,286047002.5,Y
1581208535.7,286046999.2,P
1581208555.5,286046997.3,P
1581208575.4,286046995.7,N
1581208595.2,286046995.7,N
1581208615.0,286046994.0,N
1581208615.9,286046994.0,N
1581208635.8,286046994.5,N
1581208655.6,286046996.4,N
1581208675.4,286046997.2,N
1581208695.3,286046996.5,N
1581208715.1,286046996.9,N
1581208735.9,286046997.4,N
1581208755.7,286046997.2,N
1581208775.5,286046996.6,N
1581208795.4,286046997.1,N
1581208815.2,286046996.6,N
1581208835.0,286046998.9,N
1581208835.9,286046998.9,N
1581208855.8,286046998.3,N
1581208875.6,286046996.7,N
1581208895.5,286046997.0,N
1581208915.3,286046997.9,N
1581208935.1,286046999.4,N
1581208955.9,286047002.8,N
1581208975.7,286047000.5,N
1581208995.5,286046998.9,N
1581209015.4,286046999.8,N
1581209035.2,286046999.8,N
1581209055.1,286046998.2,N
1581209056.0,286046998.2,N
1581209075.8,286046996.7,N
1581209095.6,286046998.4,N
1581209115.5,286046998.8,N
1581209135.3,286047000.8,N
1581209155.1,286047001.1,N
1581209175.9,286047000.7,N
1581209195.7,286046998.4,N
1581209215.6,286047000.2,N
1581209235.4,286046998.9,N
1581209255.2,286046999.1,N
1581209275.1,286046997.1,N
1581209276.0,286046997.1,N
1581209295.8,286046996.8,N
1581209315.6,286046999.2,N
1581209335.5,286046997.3,N
1581209355.3,286046997.6,N
1581209375.2,286046995.4,Y
1581209395.9,286046997.4,P
1581209415.8,286046997.3,P
1581209435.6,286046998.7,N
1581209455.4,286046998.9,N
1581209475.3,286046998.9,N
1581209495.1,286046999.4,N
1581209515.8,286046998.3,N
1581209535.7,286046996.9,Y
1581209555.5,286046999.5,P
1581209575.4,286046996.5,P
1581209595.2,286046999.6,N
1581209615.0,286047001.2,N
1581209615.9,286047001.2,N
1581209635.8,286046997.4,N
1581209655.6,286046998.2,N
1581209675.5,286046997.1,N
1581209695.3,286046997.0,N
1581209715.1,286046995.6,N
1581209735.9,286046995.1,N
1581209755.7,286046995.4,N
1581209775.5,286046997.1,N
1581209795.4,286046994.9,N
1581209815.2,286046997.2,N
1581209835.1,286046996.9,N
1581209836.0,286046996.9,N
1581209855.8,286046996.5,N
1581209875.6,286046995.4,N
1581209895.5,286046996.8,N
1581209915.3,286046999.3,N
1581209935.1,286046998.3,N
1581209955.9,286046998.2,N
1581209975.7,286046999.1,N
1581209995.6,286046998.8,N
